Regional Weather Roundup
Issued by NWS

Home | Current Version | Previous Version | Graphics & Text | Print | Product List | Glossary On
Versions: 1 2 3 4 5 6 7 8 9 10 11 12 13 14 15 16 17 18 19 20 21 22 23 24 25 26 27 28 29 30 31 32 33 34 35 36 37 38 39 40 41 42 43 44 45 46 47 48 49 50
000
ASUS43 KOAX 132002
RWRNE

WEATHER ROUNDUP FOR NEBRASKA
NATIONAL WEATHER SERVICE OMAHA NE
200 PM CST SAT FEB 13 2016

NOTES: SATELLITE DATA IS BEING USED TO AUGMENT CLOUD COVER ABOVE
       12000 FEET.
       "FAIR" INDICATES FEW OR NO CLOUDS BELOW 12,000 FEET WITH NO
       SIGNIFICANT WEATHER AND/OR OBSTRUCTIONS TO VISIBILITY.

  * THESE STATIONS DO NOT REPORT WEATHER SUCH AS RAIN...SNOW OR FOG.

NEZ001>004-019>022-054>056-132100-
NEBRASKA PANHANDLE

CITY           SKY/WX    TMP DP  RH WIND       PRES   REMARKS
SCOTTSBLUFF    CLOUDY    47  32  56 SE9       29.91F
ALLIANCE       CLOUDY    39  32  76 S16       29.90F WCI  30
CHADRON        CLOUDY    54  32  43 SW10      29.84F
KIMBALL        CLOUDY    61  27  27 W8        29.94F
SIDNEY         CLOUDY    39  34  82 SW12      29.96F WCI  32
$$

NEZ057>060-069>072-079>082-132100-
SOUTHWEST NEBRASKA

CITY           SKY/WX    TMP DP  RH WIND       PRES   REMARKS
NORTH PLATTE   CLOUDY    23  19  85 S14       30.11F WCI  11
IMPERIAL       CLOUDY    28  26  92 S14       30.06F WCI  17
MCCOOK         CLOUDY    26  21  81 S16       30.14F HAZE    WCI  14
$$

NEZ005>010-023>029-035>040-094-132100-
NORTH CENTRAL NEBRASKA

CITY           SKY/WX    TMP DP  RH WIND       PRES   REMARKS
VALENTINE      CLOUDY    29  23  78 S23G33    30.00F WCI  15
AINSWORTH      CLOUDY    25  20  79 S22G31    30.05F WCI  10
BROKEN BOW     CLOUDY    22  18  85 S17G24    30.16F WCI   8
ORD            CLOUDY    22  11  62 S16       30.21F WCI   8
$$

NEZ041-046>049-061>064-073>077-083>087-132100-
SOUTH CENTRAL NEBRASKA

CITY           SKY/WX    TMP DP  RH WIND       PRES   REMARKS
GRAND ISLAND   CLOUDY    20   9  62 SE18      30.27F WCI   5
HASTINGS       CLOUDY    21   7  54 SE15      30.25F WCI   8
HEBRON         CLOUDY    24   4  43 SE14      30.32F WCI  11
KEARNEY *      CLOUDY    21   9  58 S14       30.21F WCI   8
$$

NEZ011>018-030>034-042>045-132100-
NORTHEAST NEBRASKA

CITY           SKY/WX    TMP DP  RH WIND       PRES   REMARKS
NORFOLK        CLOUDY    17   6  62 SE18G25   30.29F WCI   1
BLAIR          CLOUDY    16   6  64 SE13      30.39F WCI   3
COLUMBUS *     CLOUDY    18   0  45 SE13      30.33F WCI   4
FREMONT        CLOUDY    17   6  62 SE13      30.39F WCI   3
TEKAMAH        CLOUDY    14   6  70 SE17      30.42F WCI  -3
$$

NEZ050>053-065>068-078-088>093-132100-
SOUTHEAST NEBRASKA

CITY           SKY/WX    TMP DP  RH WIND       PRES   REMARKS
LINCOLN        CLOUDY    20   5  52 SE14      30.40F WCI   7
OMAHA EPPLEY   CLOUDY    17   5  59 SE14      30.44F WCI   3
BEATRICE       CLOUDY    21   3  46 SE12      30.37F WCI   9
FALLS CITY     CLOUDY    20   3  48 SE13      30.44F WCI   7
NEBRASKA CITY  CLOUDY    18   1  47 SE12      30.42F WCI   5
$$

NEZ044-045-051>053-067-132100-
OMAHA AREA

CITY           SKY/WX    TMP DP  RH WIND       PRES   REMARKS
OMAHA EPPLEY   CLOUDY    17   5  59 SE14      30.44F WCI   3
BLAIR          CLOUDY    16   6  64 SE13      30.39F WCI   3
FREMONT        CLOUDY    17   6  62 SE13      30.39F WCI   3
OFFUTT AFB     CLOUDY    18   3  53 E12       30.42F WCI   5
WAHOO          CLOUDY    18   8  65 SE13      30.39F WCI   4
$$



USA.gov is the U.S. government's official web portal to all federal, state and local government web resources and services.